Location: Ferintosh
(52.7647°N, 112.9692°W)
Time: 20:44:58
(UTC+00:00)

A-11 Canister half - Pass Details

Date: 25 May 2024
Orbit: 1524 x 1683 km, 47.3° (Epoch: 19 June)

Event Time Altitude Azimuth Distance (km) Brightness Sun altitude
Rises 10:05:36 0° 285° (WNW) 4,772 11.4 -8.7°
Reaches altitude 10° 10:09:01 10° 276° (W) 3,808 10.8 -8.4°
Maximum altitude 10:17:18 34° 217° (SW) 2,463 9.6 -7.6°
Drops below altitude 10° 10:25:49 10° 158° (SSE) 3,902 10.9 -6.8°
Sets 10:29:23 0° 150° (SSE) 4,903 11.5 -6.4°
